Wind_Speed
20 21 21 22 22 22 21 20 19 17 17 17 18 18 18 18 17 17 17 17 17 17 16 15 15 15 14 14 14 13 14 14 15 15 15 16 17 18 19 18 18 17 17
21 21 21 22 22 22 21 20 19 17 17 17 17 17 17 17 17 17 17 16 16 17 17 17 17 16 16 16 15 15 15 15 15 15 15 15 15 16 16 15 14 13 12
22 22 21 21 20 19 19 18 17 17 16 16 16 16 16 16 17 17 16 16 15 16 17 18 18 18 18 18 18 17 16 16 16 16 16 16 16 16 16 15 13 12 10
22 21 21 19 18 17 17 17 16 16 16 15 14 14 15 16 17 17 16 15 15 16 17 18 18 19 20 20 20 19 18 17 17 17 17 17 17 18 17 17 16 15 13
22 21 19 16 15 15 15 16 16 15 15 14 13 13 14 15 17 18 18 17 16 17 18 19 19 20 21 22 22 21 20 19 18 19 19 20 20 21 21 20 20 19 18
20 19 17 14 14 15 15 15 15 15 15 14 14 13 13 14 16 18 19 19 19 20 20 21 21 21 21 21 22 22 21 21 20 20 22 23 23 24 25 25 25 25 24
19 16 15 13 13 14 14 14 14 14 14 14 14 14 14 14 16 18 20 21 21 22 23 23 22 22 21 21 21 22 23 23 23 23 24 26 27 28 29 29 29 29 30
19 16 15 13 13 14 14 14 13 14 14 15 15 16 16 16 17 18 19 20 21 23 23 23 23 23 23 23 24 25 26 26 27 28 29 30 31 32 33 34 34 34 34
19 17 16 15 14 14 14 14 14 14 15 16 16 17 18 19 19 20 20 20 21 22 22 23 24 25 25 26 27 29 30 31 32 33 34 35 36 37 38 38 39 39 39
20 19 18 16 16 15 15 14 13 13 14 16 17 18 20 21 22 23 24 24 24 24 24 25 27 28 29 30 31 33 34 36 36 38 39 40 40 41 41 42 42 43 43
21 20 19 18 18 17 16 15 13 13 14 15 16 17 19 20 22 23 24 25 26 26 27 28 29 31 32 33 34 36 38 39 40 41 42 43 43 43 44 43 43 43 43
22 21 20 20 20 19 17 16 15 15 16 16 16 17 18 19 20 21 23 24 26 27 28 30 31 33 34 36 37 39 41 42 42 43 43 43 43 43 42 41 41 41 41
22 22 22 22 22 20 19 19 19 19 19 19 19 19 19 20 21 21 22 24 26 27 30 31 33 34 36 38 40 42 42 42 41 40 40 40 40 39 39 38 38 38 39
23 22 23 23 23 22 22 22 22 22 23 23 23 22 22 22 22 23 24 25 27 29 32 34 36 37 39 41 41 40 39 37 35 34 34 35 35 36 37 37 38 38 40
24 22 22 23 24 24 24 24 24 25 26 26 26 26 26 26 26 26 27 28 30 31 33 35 36 38 38 38 38 37 36 35 35 34 34 34 35 36 37 39 39 40 41
24 23 22 23 24 25 25 25 26 27 28 29 29 29 29 30 30 30 30 31 33 34 35 35 36 36 36 36 36 36 36 35 35 36 36 36 37 37 38 40 42 43 44
24 23 22 23 24 25 25 25 27 28 29 31 32 32 32 32 32 33 34 35 36 37 36 36 35 35 35 34 34 34 35 35 36 37 37 38 39 40 41 43 45 47 49
24 23 22 23 24 25 26 27 28 30 31 33 34 34 34 34 34 35 37 38 38 38 37 36 35 34 34 34 34 34 35 36 37 38 40 41 43 45 46 48 50 52 54
25 23 23 23 24 26 27 29 30 32 34 34 34 33 33 34 35 37 39 39 38 37 36 36 35 36 36 36 36 37 37 38 40 42 44 46 49 51 53 55 57 59 60
25 24 23 24 25 27 29 32 33 35 35 34 33 33 33 35 37 39 40 40 39 38 37 37 37 38 39 39 39 40 41 42 45 47 49 52 54 56 59 61 63 65 66
27 25 25 25 27 29 31 33 35 35 34 33 33 34 35 37 39 40 41 40 39 39 39 39 40 41 42 43 44 44 46 48 51 53 56 59 61 63 65 66 68 70 71
28 27 26 27 29 31 32 33 33 33 32 33 34 36 38 40 41 42 41 41 41 41 42 42 43 44 45 48 50 51 52 53 56 59 62 64 66 68 69 70 72 73 75
28 28 28 28 30 32 32 32 32 32 33 35 36 38 40 41 41 41 42 42 42 43 44 45 46 48 50 52 56 59 62 64 65 65 67 68 70 71 73 74 75 77 78
28 28 28 29 30 31 31 31 32 33 35 37 39 40 41 41 41 41 42 42 43 44 45 47 50 53 55 58 61 65 69 73 75 74 72 73 74 75 76 78 79 80 81
28 28 29 30 30 31 32 33 34 36 38 39 40 40 40 40 41 41 41 42 43 45 48 51 55 58 62 65 68 71 72 74 76 79 78 79 79 80 81 82 83 85 86
28 28 29 30 31 32 34 35 37 38 39 39 40 40 40 40 40 41 42 43 46 49 53 56 60 64 67 70 72 74 76 78 80 81 82 83 83 83 85 86 88 90 92
Wind_Direction
272 275 280 284 288 290 291 291 290 286 279 275 274 272 268 267 267 268 266 263 260 260 262 264 265 265 270 276 283 287 290 292 296 301 310 318 324 325 322 315 309 303 298
272 275 280 286 291 292 293 292 290 285 280 276 276 274 270 267 267 270 271 270 267 265 266 267 268 270 273 276 280 282 286 288 292 298 307 318 327 332 333 329 322 315 308
269 273 279 287 292 293 293 292 288 282 281 280 280 278 273 270 267 269 273 274 273 272 271 272 274 275 277 279 280 282 284 287 290 296 303 311 318 323 328 329 328 325 318
266 271 279 285 289 292 292 290 285 281 280 283 285 281 275 269 266 267 271 273 274 275 274 276 278 279 279 280 280 282 283 285 288 292 297 302 307 310 313 315 317 317 313
264 269 277 280 284 288 289 289 287 284 282 286 288 283 276 269 264 264 268 270 272 275 276 278 279 280 280 280 280 280 280 281 283 286 290 295 298 299 300 302 303 302 301
261 266 271 273 280 284 287 288 289 287 285 286 287 286 281 273 267 266 268 270 273 276 279 281 282 282 281 280 280 280 280 281 281 282 285 289 291 292 293 293 293 293 292
257 259 261 264 273 280 285 287 288 288 287 286 286 285 284 279 274 271 271 272 274 276 279 282 284 283 281 281 282 282 282 282 281 280 281 283 284 286 287 288 288 288 287
255 252 250 254 264 274 281 282 284 286 287 287 286 285 284 282 280 279 279 278 278 278 279 281 282 281 281 281 281 281 281 281 281 280 279 279 280 282 283 283 283 283 283
251 246 243 243 252 266 275 278 281 284 286 288 287 286 284 283 282 282 282 283 283 282 281 282 281 280 279 278 278 279 280 280 281 281 281 281 281 282 282 282 282 282 282
247 243 237 239 248 261 268 272 280 286 290 290 289 288 286 284 283 282 282 282 282 282 282 282 281 280 279 279 280 281 282 283 284 285 285 286 286 285 284 283 283 283 282
243 243 237 234 244 256 264 270 279 288 294 295 294 293 291 289 287 285 283 281 280 280 280 280 281 281 282 283 284 285 286 286 287 287 287 286 286 285 285 283 282 282 282
243 242 239 238 243 251 257 267 279 287 293 295 298 298 297 295 292 288 285 283 282 281 282 282 283 283 284 285 286 287 287 287 287 287 286 286 286 286 285 284 283 283 283
243 242 241 242 247 252 257 265 276 284 289 293 295 296 296 296 294 292 291 289 287 286 286 286 286 286 286 287 287 287 288 288 288 287 286 286 286 286 286 286 286 286 286
243 241 244 246 250 254 258 268 275 281 285 289 292 294 295 295 295 294 294 293 292 291 290 290 290 290 289 289 289 290 291 291 291 290 290 289 289 289 289 289 289 289 289
246 244 244 249 253 257 262 269 276 280 283 286 289 291 293 294 295 295 295 295 295 293 292 292 292 291 291 290 290 290 290 290 290 290 291 291 291 291 291 291 291 290 290
247 248 249 252 256 261 267 273 279 282 285 286 287 288 289 291 292 293 295 296 296 296 295 295 294 292 291 291 291 291 291 291 292 292 292 291 291 290 290 291 291 291 290
249 252 254 256 260 265 271 277 281 283 285 286 286 286 287 289 290 292 294 296 298 298 298 297 296 295 294 294 293 292 292 292 291 290 290 290 290 289 289 289 290 290 289
251 254 256 259 263 269 276 281 284 287 288 289 288 287 287 287 289 291 294 296 298 299 298 298 297 296 295 294 292 291 291 290 289 289 289 289 289 289 290 290 290 290 289
251 253 256 261 266 273 279 284 287 290 291 291 289 288 287 287 289 291 294 296 297 297 297 296 296 295 294 293 292 291 291 290 289 289 291 291 291 291 291 292 291 291 290
250 252 256 263 270 276 281 286 289 292 292 291 290 289 288 290 292 294 295 296 297 296 296 296 296 295 294 293 292 292 291 291 291 291 292 292 292 292 292 292 292 291 290
249 253 259 266 273 279 284 288 290 291 292 291 291 291 292 294 295 296 298 298 298 298 298 298 297 297 296 296 295 295 295 295 294 294 293 293 293 293 292 292 291 291 290
250 255 261 269 276 282 286 288 289 289 289 290 291 293 295 296 297 298 299 300 301 301 301 301 301 301 301 300 298 296 294 293 292 293 293 292 292 292 292 291 291 290 289
251 256 264 272 279 284 286 286 286 287 288 290 292 294 295 296 297 299 300 301 302 303 303 304 303 302 301 299 298 297 296 294 292 292 292 292 292 292 292 291 290 290 289
253 258 266 274 280 283 283 283 285 286 288 291 293 295 296 298 299 300 301 302 303 304 303 302 301 300 299 298 298 298 298 297 296 295 294 294 294 294 293 293 292 292 291
254 261 268 275 279 280 281 282 284 287 289 292 294 296 297 299 300 301 302 302 302 301 301 301 301 300 300 299 299 299 298 298 297 297 296 296 296 296 296 295 295 294 293
256 263 269 274 277 279 281 283 286 288 291 293 295 297 299 300 300 300 300 300 300 300 300 301 301 301 301 300 300 300 300 300 299 299 298 297 297 297 297 297 297 297 296
Height
5852 5852 5852 5852 5851 5851 5851 5850 5850 5849 5849 5849 5849 5849 5850 5850 5851 5852 5852 5852 5852 5853 5853 5853 5853 5853 5853 5853 5852 5852 5852 5851 5850 5849 5848 5847 5845 5843 5841 5840 5839 5837 5837
5849 5849 5849 5849 5849 5849 5848 5848 5847 5847 5846 5846 5846 5846 5847 5848 5848 5849 5850 5850 5850 5850 5851 5851 5851 5850 5850 5850 5849 5849 5848 5848 5847 5846 5845 5844 5842 5841 5839 5838 5836 5835 5834
5846 5846 5847 5847 5846 5846 5845 5845 5845 5844 5844 5844 5844 5844 5844 5845 5846 5847 5847 5847 5847 5848 5848 5848 5848 5848 5847 5846 5846 5845 5845 5844 5844 5843 5842 5841 5840 5838 5837 5836 5835 5834 5833
5843 5843 5844 5844 5844 5843 5843 5843 5842 5842 5842 5842 5841 5841 5842 5842 5843 5844 5844 5844 5844 5845 5845 5845 5844 5844 5844 5843 5842 5841 5841 5840 5840 5839 5838 5837 5837 5835 5835 5834 5833 5832 5831
5840 5841 5841 5842 5841 5841 5841 5840 5840 5840 5840 5840 5839 5839 5839 5839 5840 5841 5841 5841 5841 5841 5841 5841 5841 5840 5840 5839 5838 5837 5837 5836 5835 5835 5834 5834 5833 5832 5831 5830 5830 5829 5828
5837 5838 5838 5839 5839 5838 5838 5838 5837 5837 5837 5837 5837 5837 5837 5836 5837 5837 5838 5838 5838 5838 5838 5838 5837 5836 5836 5835 5834 5833 5832 5831 5831 5831 5830 5829 5828 5828 5827 5826 5825 5824 5824
5834 5835 5835 5836 5836 5836 5835 5835 5835 5834 5834 5834 5834 5834 5834 5834 5834 5834 5834 5834 5834 5834 5834 5834 5833 5832 5831 5831 5830 5829 5828 5827 5826 5826 5825 5824 5823 5822 5821 5820 5820 5819 5818
5830 5832 5832 5833 5833 5833 5833 5832 5832 5832 5831 5831 5831 5831 5831 5831 5831 5831 5830 5830 5830 5830 5830 5829 5828 5827 5826 5825 5824 5823 5822 5821 5820 5819 5818 5818 5817 5816 5814 5813 5813 5812 5811
5826 5828 5829 5829 5830 5830 5830 5830 5829 5829 5828 5828 5827 5827 5827 5827 5827 5826 5826 5825 5825 5825 5825 5824 5823 5821 5820 5819 5818 5817 5816 5814 5813 5812 5811 5810 5809 5808 5807 5806 5805 5804 5803
5822 5824 5825 5826 5826 5826 5826 5827 5826 5826 5825 5825 5824 5824 5823 5822 5822 5821 5821 5820 5820 5820 5819 5818 5817 5815 5814 5813 5812 5811 5810 5809 5807 5806 5805 5803 5802 5800 5799 5798 5797 5796 5795
5818 5819 5821 5822 5823 5823 5823 5823 5823 5823 5822 5822 5821 5820 5818 5817 5817 5816 5815 5815 5814 5814 5813 5812 5810 5809 5808 5807 5806 5805 5804 5802 5800 5799 5797 5795 5793 5791 5790 5789 5787 5786 5786
5814 5815 5816 5817 5818 5819 5820 5820 5820 5820 5819 5818 5817 5816 5814 5813 5812 5811 5810 5809 5809 5808 5807 5806 5805 5803 5802 5801 5799 5798 5796 5794 5792 5790 5788 5785 5783 5782 5780 5779 5778 5777 5776
5810 5811 5812 5813 5814 5815 5816 5817 5817 5816 5816 5815 5813 5812 5811 5810 5808 5807 5806 5805 5803 5802 5801 5800 5798 5797 5795 5793 5792 5790 5787 5785 5783 5781 5779 5777 5775 5773 5771 5769 5768 5767 5766
5806 5808 5808 5809 5810 5811 5812 5812 5812 5812 5812 5811 5809 5808 5807 5806 5804 5803 5801 5800 5799 5797 5795 5793 5791 5789 5787 5786 5783 5781 5779 5776 5774 5772 5770 5768 5766 5764 5762 5760 5759 5758 5756
5801 5803 5805 5805 5806 5807 5807 5808 5808 5808 5807 5806 5805 5803 5802 5801 5800 5798 5797 5795 5793 5791 5789 5786 5784 5781 5779 5777 5774 5772 5770 5768 5766 5764 5762 5760 5758 5756 5754 5751 5750 5748 5747
5798 5799 5801 5801 5802 5803 5803 5804 5804 5803 5802 5801 5800 5798 5797 5796 5794 5792 5791 5789 5786 5784 5781 5778 5776 5773 5771 5768 5766 5764 5762 5760 5758 5756 5753 5751 5749 5747 5745 5742 5740 5737 5735
5794 5796 5797 5798 5798 5798 5799 5800 5799 5799 5798 5796 5795 5793 5791 5790 5788 5786 5784 5781 5779 5776 5773 5770 5767 5765 5762 5760 5758 5756 5753 5751 5749 5746 5744 5741 5739 5737 5734 5732 5729 5726 5723
5790 5792 5793 5793 5794 5794 5795 5795 5795 5794 5792 5791 5789 5787 5785 5783 5781 5779 5777 5774 5771 5768 5765 5762 5759 5757 5754 5752 5750 5747 5744 5742 5739 5736 5733 5731 5728 5725 5722 5719 5716 5713 5710
5786 5788 5789 5789 5790 5790 5790 5790 5789 5788 5786 5785 5783 5781 5779 5777 5775 5772 5770 5766 5763 5760 5757 5754 5751 5748 5745 5743 5740 5738 5735 5732 5729 5726 5723 5720 5716 5712 5709 5705 5701 5698 5694
5781 5783 5784 5785 5786 5786 5785 5784 5783 5782 5780 5778 5776 5774 5772 5770 5768 5765 5762 5759 5755 5752 5749 5745 5742 5739 5735 5733 5730 5728 5725 5721 5717 5714 5711 5707 5703 5699 5694 5690 5685 5681 5677
5777 5779 5780 5780 5781 5781 5780 5779 5777 5776 5774 5772 5770 5768 5765 5763 5760 5758 5755 5751 5747 5744 5740 5737 5733 5729 5725 5722 5719 5717 5714 5710 5706 5702 5697 5693 5689 5684 5679 5674 5668 5663 5658
5772 5774 5775 5775 5776 5775 5774 5773 5771 5769 5767 5766 5763 5761 5758 5756 5753 5750 5746 5742 5739 5735 5731 5727 5723 5719 5715 5710 5706 5703 5702 5700 5695 5690 5684 5678 5673 5668 5662 5656 5650 5644 5638
5767 5769 5770 5770 5770 5769 5768 5766 5765 5763 5761 5759 5757 5754 5751 5748 5745 5741 5737 5733 5729 5725 5721 5716 5712 5708 5704 5699 5693 5687 5683 5680 5678 5677 5670 5663 5656 5650 5644 5637 5631 5624 5617
5762 5763 5764 5764 5764 5763 5761 5760 5758 5756 5754 5752 5749 5746 5743 5740 5736 5732 5729 5724 5720 5716 5711 5707 5702 5697 5692 5687 5681 5674 5666 5659 5653 5651 5649 5643 5636 5629 5622 5615 5608 5600 5592
5757 5758 5758 5758 5757 5756 5755 5753 5751 5749 5747 5744 5741 5738 5735 5732 5728 5723 5719 5715 5711 5706 5702 5696 5691 5685 5678 5671 5665 5658 5652 5644 5635 5628 5625 5620 5613 5606 5598 5590 5582 5573 5564
5751 5752 5752 5751 5751 5749 5748 5746 5744 5742 5739 5736 5733 5730 5726 5723 5719 5715 5711 5706 5702 5697 5691 5685 5678 5671 5664 5656 5648 5640 5632 5624 5615 5607 5601 5597 5591 5584 5574 5565 5554 5544 5534